Showing default

RSW-01, 49112

Orbit data source: Space-Track

RSW-01, 49112 is a payload satellite owned by CAST (CN) in LEO that was launched on Tue, 24 Aug 2021 UTC via a CHANG ZHENG 2C/YZ-1S launch vehicle from the Jiuquan Satellite Launch Center, China (JSC). Payload-class satellites include a variety of spacecraft equipped with specific instruments for various scientific and technological missions. These include communications satellites like Starlink; space stations such as the ISS; scientific satellites like the Hubble; Earth observation satellites from companies like Planet Labs, Umbra, and HawkEye 360; GPS; miniature CubeSats for education and research; and military/defense satellites.

Loading next visibility...
Identifier
49112, 2021-076A
Orbit
LEO
Country
Flag of CNCN / PRC
Related business
Manufacturer
CAST?
Mission
Operational Civil Communications
Bus & Motor
Unknown
Mass
~300 kg wet, ~300 kg dry
Launch date (UTC)
2021-08-24 (5 years ago)
Launch vehicle
CHANG ZHENG 2C/YZ-1S
Launch site
Jiuquan Satellite Launch Center, China (JSC)
Object type
Payload
Rocket body
Debris
Shape & HBR
Box + 2 Pan, 1.3 m
Radar Cross Section
2.320 m², Large (>1 m²)

Expand to show TLE details & history
Last TLE update: 22 hours ago

TLE from 22 hours ago
0 RSW-01
1 49112U 21076A   26172.52221685  .00000110  00000-0  16556-3 0  9990
2 49112  86.4106 156.2731 0017375  56.3241 303.9557 13.42857817236462
Epoch: 2026-06-21T12:31Z
TLE epoch observation values (Epoch: 2026-06-21T12:31:59.535Z)
Latitude
-0.00009°
Longitude
58.55375°
Altitude
1,094.331 km
Speed
7.309 km/s
True Right ascension
10h 25m 05s
True Declination
0° 00' 00"
Sunlit
Object was in daylight at epoch
Visualization orbit readout
Latitude
Unknown
Longitude
Unknown
Altitude
Unknown
Speed
Unknown
Apparent Right ascension
Unknown
Apparent Declination
Unknown
Sunlit
N/A
Visualization observer readout
Local Sidereal Time
21:25:23
Azimuth
Unknown
Elevation
Unknown
Doppler factor
Unknown
Orbital elements
Apogee altitude
1,108.733 km
Perigee altitude
1,082.761 km
Semi-major axis
7,473.884 km
Eccentricity
0.00174
Inclination
86.4106°
RAAN
156.2731°
Arg. of periapsis
56.3241°
True anomaly
303.79035°
Mean anomaly
303.9557°
Eccentric anomaly
303.87304°
Mean motion
3.35911 °/min
Orbital period
107.17 mins
BSTAR
0.00016556
Loading maneuver chart data...
Computing Atmospheric mass density...
Loading historical data...
Loading historical data...
Loading historical data...
Loading historical data...
Loading historical data...
Loading historical data...
Loading historical data...
Other satellites on launch #76 in the year 2021 (2021-08-24 UTC)

Documentation

Showing up to 5 results
|